Regional Weather Roundup
Issued by NWS Glasgow, MT

Home | Current Version | Previous Version | Text Only | Print | Product List | Glossary On
Versions: 1 2 3 4 5 6 7 8 9 10 11 12 13 14 15 16 17 18 19 20 21 22 23 24 25 26 27
000
ASUS45 KGGW 221715
RWRGGW
HOURLY REGIONAL WEATHER ROUNDUP FOR NORTHEAST MONTANA
NATIONAL WEATHER SERVICE GLASGOW MONTANA
1100 AM MDT MON MAY 22 2017

NOTE: "FAIR" INDICATES FEW OR NO CLOUDS BELOW 12,000 FEET WITH NO
SIGNIFICANT WEATHER AND/OR OBSTRUCTIONS TO VISISBILITY.

NORTHEAST MONTANA


CITY           SKY/WX    TMP DP  RH WIND       PRES   REMARKS
GLASGOW        PTSUNNY   62  40  44 N16G24    30.13R
PLENTYWOOD       N/A     61  32  33 N12         N/A
WOLF POINT     MOSUNNY   65  40  39 N14G28    30.09S
JORDAN           N/A     63  36  36 N22G29    30.13S
WINNETT          N/A     61  39  44 NW8G16      N/A
SIDNEY         MOSUNNY   61  41  47 N8        30.06S
GLENDIVE       MOSUNNY   59  39  47 N17G23    30.07F
MALTA            N/A     65  40  39 NE9         N/A
SCOBEY           N/A     59  41  51 N13G25    30.08R

FORT PECK REPORTS


CITY           SKY/WX    TMP DP  RH WIND       PRES   REMARKS
FORT PECK        N/A     62  40  44 NW16G25     N/A
THE PINES        N/A     61  36  39 E3G12       N/A

SOUTHEAST MONTANA


CITY           SKY/WX    TMP DP  RH WIND       PRES   REMARKS
BILLINGS       LGT RAIN  61  38  42 N17       30.18R
MILES CITY     MOSUNNY   61  37  41 N17       30.10S
BAKER          CLOUDY    55  43  63 N20       30.06R
LIVINGSTON     CLOUDY    59  40  49 W6        30.24S

CENTRAL MONTANA


CITY           SKY/WX    TMP DP  RH WIND       PRES   REMARKS
HAVRE          SUNNY     65  39  38 VRB5      30.17F
LEWISTOWN      MOSUNNY   61  38  42 NW14G23   30.20S
GREAT FALLS    CLOUDY    63  35  35 SE3       30.24S
CUT BANK       MOSUNNY   66  35  31 E9        30.22S
HELENA         SUNNY     68  40  35 NE5       30.22F
BUTTE          SUNNY     62  34  35 NW7       30.29F
BOZEMAN        SUNNY     62  38  40 CALM      30.25F

WESTERN MONTANA


CITY           SKY/WX    TMP DP  RH WIND       PRES   REMARKS
MISSOULA       SUNNY     61  44  53 CALM      30.26F
KALISPELL      NOT AVBL

NORTH DAKOTA


CITY           SKY/WX    TMP DP  RH WIND       PRES   REMARKS
WILLISTON      MOSUNNY   65  38  36 N13G22    30.05S
DICKINSON      PTSUNNY   58  35  42 N15G24    29.99S
MINOT          PTSUNNY   57  37  47 N17       29.99R
BISMARCK       PTSUNNY   62  38  40 NW16      29.97R

SOUTHERN SASKATCHEWAN


CITY           SKY/WX    TMP DP  RH WIND       PRES   REMARKS
REGINA         MOSUNNY   63  36  36 NE18G26   30.09S
ESTEVAN        MOSUNNY   64  36  34 N15G23    30.02F
SWIFT CURRENT  SUNNY     61  36  39 NW12      30.17R





USA.gov is the U.S. government's official web portal to all federal, state and local government web resources and services.